SHENZHOU-13 (SZ-13) (49326 NORAD) Tracking and Keplerian Element Data

This shows tracking and keplerian element data for the satellite.

Feedback or suggestion? Click here.




ElementValue
Catalog49326
NameSHENZHOU-13 (SZ-13)
Epoch Orbit3447
Epoch Day339.41743177
Epoch Year2021
RAAN319.2304
Inclination41.4704
Eccentricity0.0003522
Argument of Perigee164.0563
Mean Anonmoly331.5015
Mean Motion15.61885925
Decay Rate0.00014182
L11 49326U 21092A 21339.41743177 .00014182 00000+0 16208-3 0 9995
L22 49326 41.4704 319.2304 0003522 164.0563 331.5015 15.61885925 34471

Live tracking and technical data element details for SHENZHOU-13 (SZ-13) (NORAD 49326). SHENZHOU-13 (SZ-13) can be tracked NOW for your location showing map with azimuth and elevation plus other details from your city location.

Track the satellite on the map from your city or location and see movement details for azimuth, elevation, latitude, longitude, range, height, and movement on the map or in text.







IsCatalogInMostPopularTable: catalog: 49326, numindb: 65
Update: records affected: 1



GetName: 49326 SHENZHOU-13 (SZ-13)

Hit Count: updated at: Mon, 06 Dec 2021 13:45:04 GMT